Weather in Tullamore

Ireland     53°16′15″N   7°29′34″W
temp.,
°C
wind,
m/s
gust,
m/s
humid.,
%
clouds,
%
prec.,
mm/h
press.,
hPa
HPBL,
m
6 may, thu
thu601:00−2nne228915 0.0 101019
04:00−3nw11942 0.0 101010
07:00−1nw24882 0.0 1010127
10:00+6n46500 0.0 10101400
13:00+10nnw3539100 0.0 10102426
16:00+9nw555768 0.3 10101511
19:00+8nnw46585 0.8 10111202
22:00+2nw27772 0.0 1014141
7 may, fri
fri701:00−1wnw22900 0.0 101521
04:00−2wsw22935 0.0 101614
07:000wsw24873 0.0 101792
10:00+7w23552 0.0 1017999
13:00+11n114357 0.0 10161941
16:00+12se2342100 0.0 10141994
19:00+10se3556100 0.0 1012854
22:00+6se41067100 0.0 1011583
8 may, sat
sat801:00+5se51275100 0.0 10061035
04:00+4ese71697100 4.9 1000875
07:00+6ese61597100 9.8 994960
10:00+9sse3598100 0.0 992239
13:00+15wsw5873100 0.7 9911338
16:00+15ssw4666100 0.3 9901242
19:00+13s5872100 0.4 990948
22:00+10sse41180100 0.0 989592
9 may, sun
sun901:00+9sse41191100 0.0 988645
04:00+10s51070100 0.0 9851065
07:00+10sse5118298 0.1 9841092
10:00+11sse51275100 0.1 9831260
13:00+13s71476100 0.4 9821430
16:00+12sse71375100 0.4 9811329
19:00+11sse6138196 0.8 9811268
22:00+11sse61175100 0.1 9821168
10 may, mon
mon1001:00+8sse4109373 0.1 982632
04:00+9se4985100 0.1 982924
07:00+9se5119197 0.4 982569
10:00+12sse598878 0.6 982884
13:00+11s51095100 3.8 9841048
16:00+12sw589196 2.4 9851124
19:00+11wsw359459 4.4 988496
22:00+9s249894 0.8 991105